Time,TemperatureF,DewpointF,PressureIn,WindDirection,WindDirectionDegrees,WindSpeedMPH,WindSpeedGustMPH,Humidity,HourlyPrecipIn,Conditions,Clouds,dailyrainin,SoftwareType,DateUTC
2013-04-02 00:02:00,35.0,35.0,-100.00,West,275,8.0,9.0,99,-99.99,,,-99.99,,2013-04-02 06:02:00,
2013-04-02 00:12:00,35.0,35.0,-100.00,West,270,8.0,11.0,99,-99.99,,,-99.99,,2013-04-02 06:12:00,
2013-04-02 00:22:00,35.0,35.0,-100.00,West,278,8.0,9.0,99,-99.99,,,-99.99,,2013-04-02 06:22:00,
2013-04-02 00:31:00,35.0,35.0,-100.00,West,276,9.0,10.0,99,-99.99,,,-99.99,,2013-04-02 06:31:00,
2013-04-02 00:42:00,35.0,35.0,-100.00,West,276,10.0,11.0,99,-99.99,,,-99.99,,2013-04-02 06:42:00,
2013-04-02 00:52:00,36.0,35.0,-100.00,WSW,253,7.0,10.0,99,-99.99,,,-99.99,,2013-04-02 06:52:00,
2013-04-02 01:01:00,36.0,35.0,-100.00,WSW,253,7.0,10.0,99,-99.99,,,-99.99,,2013-04-02 07:01:00,
2013-04-02 01:12:00,35.0,35.0,-100.00,West,260,10.0,12.0,99,-99.99,,,-99.99,,2013-04-02 07:12:00,
2013-04-02 01:22:00,35.0,35.0,-100.00,West,260,10.0,12.0,99,-99.99,,,-99.99,,2013-04-02 07:22:00,
2013-04-02 01:31:00,35.0,35.0,-100.00,WSW,239,8.0,9.0,99,-99.99,,,-99.99,,2013-04-02 07:31:00,
2013-04-02 01:42:00,35.0,35.0,-100.00,WSW,239,8.0,9.0,99,-99.99,,,-99.99,,2013-04-02 07:42:00,
2013-04-02 01:52:00,35.0,35.0,-100.00,West,277,9.0,11.0,100,-99.99,,,-99.99,,2013-04-02 07:52:00,
2013-04-02 02:02:00,35.0,35.0,-100.00,West,274,7.0,11.0,100,-99.99,,,-99.99,,2013-04-02 08:02:00,
2013-04-02 02:12:00,35.0,35.0,-100.00,West,274,7.0,11.0,100,-99.99,,,-99.99,,2013-04-02 08:12:00,
2013-04-02 02:22:00,35.0,35.0,-100.00,WNW,286,7.0,8.0,100,-99.99,,,-99.99,,2013-04-02 08:22:00,
2013-04-02 02:31:00,35.0,35.0,-100.00,WNW,286,7.0,8.0,100,-99.99,,,-99.99,,2013-04-02 08:31:00,
2013-04-02 02:42:00,35.0,35.0,-100.00,West,281,6.0,8.0,100,-99.99,,,-99.99,,2013-04-02 08:42:00,
2013-04-02 02:52:00,35.0,35.0,-100.00,West,281,6.0,8.0,100,-99.99,,,-99.99,,2013-04-02 08:52:00,
2013-04-02 03:01:00,35.0,35.0,-100.00,West,277,6.0,7.0,100,-99.99,,,-99.99,,2013-04-02 09:01:00,
2013-04-02 03:12:00,35.0,35.0,-100.00,WNW,294,6.0,6.0,100,-99.99,,,-99.99,,2013-04-02 09:12:00,
2013-04-02 03:22:00,35.0,35.0,-100.00,WNW,294,6.0,6.0,100,-99.99,,,-99.99,,2013-04-02 09:22:00,
2013-04-02 03:32:00,35.0,35.0,-100.00,WNW,288,6.0,6.0,100,-99.99,,,-99.99,,2013-04-02 09:32:00,
2013-04-02 03:42:00,35.0,35.0,-100.00,WNW,290,6.0,7.0,100,-99.99,,,-99.99,,2013-04-02 09:42:00,
2013-04-02 03:52:00,35.0,35.0,-100.00,West,275,6.0,7.0,100,-99.99,,,-99.99,,2013-04-02 09:52:00,
2013-04-02 04:03:00,35.0,35.0,-100.00,West,273,4.0,5.0,100,-99.99,,,-99.99,,2013-04-02 10:03:00,
2013-04-02 04:13:00,35.0,35.0,-100.00,West,263,5.0,6.0,100,-99.99,,,-99.99,,2013-04-02 10:13:00,
2013-04-02 04:23:00,35.0,35.0,-100.00,West,273,4.0,5.0,100,-99.99,,,-99.99,,2013-04-02 10:23:00,
2013-04-02 04:33:00,34.0,34.0,-100.00,West,276,4.0,5.0,100,-99.99,,,-99.99,,2013-04-02 10:33:00,
2013-04-02 04:42:00,34.0,34.0,-100.00,WNW,282,5.0,5.0,100,-99.99,,,-99.99,,2013-04-02 10:42:00,
2013-04-02 04:52:00,34.0,34.0,-100.00,WNW,282,5.0,5.0,100,-99.99,,,-99.99,,2013-04-02 10:52:00,
2013-04-02 05:02:00,35.0,35.0,-100.00,WSW,255,5.0,6.0,100,-99.99,,,-99.99,,2013-04-02 11:02:00,
2013-04-02 05:12:00,35.0,35.0,-100.00,WSW,255,5.0,6.0,100,-99.99,,,-99.99,,2013-04-02 11:12:00,
2013-04-02 05:22:00,34.0,34.0,-100.00,West,279,6.0,6.0,100,-99.99,,,-99.99,,2013-04-02 11:22:00,
2013-04-02 05:32:00,35.0,35.0,-100.00,West,277,5.0,7.0,100,-99.99,,,-99.99,,2013-04-02 11:32:00,
2013-04-02 05:42:00,35.0,35.0,-100.00,West,273,5.0,7.0,100,-99.99,,,-99.99,,2013-04-02 11:42:00,
2013-04-02 05:52:00,35.0,35.0,-100.00,West,263,5.0,6.0,100,-99.99,,,-99.99,,2013-04-02 11:52:00,
2013-04-02 06:02:00,35.0,35.0,-100.00,West,271,5.0,6.0,100,-99.99,,,-99.99,,2013-04-02 12:02:00,
2013-04-02 06:11:00,35.0,35.0,-100.00,WNW,284,3.0,5.0,100,-99.99,,,-99.99,,2013-04-02 12:11:00,
2013-04-02 06:22:00,35.0,35.0,-100.00,WNW,291,5.0,5.0,100,-99.99,,,-99.99,,2013-04-02 12:22:00,
2013-04-02 06:32:00,35.0,35.0,-100.00,WNW,291,5.0,5.0,100,-99.99,,,-99.99,,2013-04-02 12:32:00,
2013-04-02 06:42:00,35.0,35.0,-100.00,WNW,291,5.0,5.0,100,-99.99,,,-99.99,,2013-04-02 12:42:00,
2013-04-02 06:52:00,34.0,34.0,-100.00,West,280,5.0,6.0,100,-99.99,,,-99.99,,2013-04-02 12:52:00,
2013-04-02 07:01:00,34.0,34.0,-100.00,West,280,5.0,5.0,100,-99.99,,,-99.99,,2013-04-02 13:01:00,
2013-04-02 07:12:00,34.0,34.0,-100.00,WNW,283,5.0,5.0,100,-99.99,,,-99.99,,2013-04-02 13:12:00,
2013-04-02 07:22:00,34.0,34.0,-100.00,WNW,287,4.0,5.0,100,-99.99,,,-99.99,,2013-04-02 13:22:00,
2013-04-02 07:32:00,34.0,34.0,-100.00,WNW,287,4.0,5.0,100,-99.99,,,-99.99,,2013-04-02 13:32:00,
2013-04-02 07:42:00,34.0,34.0,-100.00,WNW,293,4.0,4.0,100,-99.99,,,-99.99,,2013-04-02 13:42:00,
2013-04-02 07:52:00,33.0,33.0,-100.00,North,0,0.0,0.0,100,-99.99,,,-99.99,,2013-04-02 13:52:00,
2013-04-02 08:02:00,33.0,33.0,-100.00,North,0,0.0,0.0,100,-99.99,,,-99.99,,2013-04-02 14:02:00,
2013-04-02 08:12:00,33.0,33.0,-100.00,SSE,150,1.0,1.0,100,-99.99,,,-99.99,,2013-04-02 14:12:00,
2013-04-02 08:22:00,33.0,33.0,-100.00,WSW,247,5.0,6.0,100,-99.99,,,-99.99,,2013-04-02 14:22:00,
2013-04-02 08:32:00,33.0,33.0,-100.00,WSW,258,5.0,6.0,100,-99.99,,,-99.99,,2013-04-02 14:32:00,
2013-04-02 08:42:00,34.0,34.0,-100.00,WSW,253,5.0,6.0,100,-99.99,,,-99.99,,2013-04-02 14:42:00,
2013-04-02 08:52:00,33.0,33.0,-100.00,WSW,251,7.0,7.0,100,-99.99,,,-99.99,,2013-04-02 14:52:00,
2013-04-02 09:02:00,33.0,33.0,-100.00,West,272,6.0,6.0,100,-99.99,,,-99.99,,2013-04-02 15:02:00,
2013-04-02 09:11:00,33.0,33.0,-100.00,West,271,6.0,6.0,100,-99.99,,,-99.99,,2013-04-02 15:11:00,
2013-04-02 09:22:00,34.0,34.0,-100.00,West,279,4.0,4.0,100,-99.99,,,-99.99,,2013-04-02 15:22:00,
2013-04-02 09:33:00,34.0,34.0,-100.00,SW,230,2.0,2.0,100,-99.99,,,-99.99,,2013-04-02 15:33:00,
2013-04-02 09:42:00,34.0,34.0,-100.00,ESE,117,2.0,4.0,100,-99.99,,,-99.99,,2013-04-02 15:42:00,
2013-04-02 09:54:00,35.0,35.0,-100.00,ESE,103,3.0,4.0,100,-99.99,,,-99.99,,2013-04-02 15:54:00,
2013-04-02 10:03:00,35.0,35.0,-100.00,NE,56,5.0,7.0,100,-99.99,,,-99.99,,2013-04-02 16:03:00,
2013-04-02 10:13:00,35.0,35.0,-100.00,East,91,4.0,7.0,100,-99.99,,,-99.99,,2013-04-02 16:13:00,
2013-04-02 10:24:00,35.0,35.0,-100.00,ENE,72,6.0,9.0,100,-99.99,,,-99.99,,2013-04-02 16:24:00,
2013-04-02 10:33:00,35.0,35.0,-100.00,East,82,6.0,7.0,100,-99.99,,,-99.99,,2013-04-02 16:33:00,
2013-04-02 10:43:00,35.0,35.0,-100.00,East,87,6.0,7.0,100,-99.99,,,-99.99,,2013-04-02 16:43:00,
2013-04-02 10:52:00,35.0,35.0,-100.00,East,93,4.0,5.0,99,-99.99,,,-99.99,,2013-04-02 16:52:00,
2013-04-02 11:03:00,35.0,35.0,-100.00,ENE,72,4.0,6.0,99,-99.99,,,-99.99,,2013-04-02 17:03:00,
2013-04-02 11:12:00,36.0,36.0,-100.00,East,90,5.0,5.0,99,-99.99,,,-99.99,,2013-04-02 17:12:00,
2013-04-02 11:23:00,36.0,36.0,-100.00,East,81,1.0,4.0,99,-99.99,,,-99.99,,2013-04-02 17:23:00,
2013-04-02 11:33:00,36.0,36.0,-100.00,NNE,12,2.0,5.0,98,-99.99,,,-99.99,,2013-04-02 17:33:00,
2013-04-02 11:42:00,37.0,36.0,-100.00,East,96,2.0,3.0,98,-99.99,,,-99.99,,2013-04-02 17:42:00,
2013-04-02 11:53:00,37.0,37.0,-100.00,East,87,3.0,5.0,97,-99.99,,,-99.99,,2013-04-02 17:53:00,
2013-04-02 12:02:00,37.0,37.0,-100.00,East,81,8.0,11.0,98,-99.99,,,-99.99,,2013-04-02 18:02:00,
2013-04-02 12:12:00,38.0,37.0,-100.00,ENE,73,5.0,11.0,97,-99.99,,,-99.99,,2013-04-02 18:12:00,
2013-04-02 12:22:00,39.0,38.0,-100.00,ENE,73,5.0,6.0,96,-99.99,,,-99.99,,2013-04-02 18:22:00,
2013-04-02 12:33:00,39.0,37.0,-100.00,NE,49,7.0,9.0,93,-99.99,,,-99.99,,2013-04-02 18:33:00,
2013-04-02 12:42:00,39.0,38.0,-100.00,NE,52,7.0,10.0,93,-99.99,,,-99.99,,2013-04-02 18:42:00,
2013-04-02 12:53:00,40.0,37.0,-100.00,ENE,66,10.0,13.0,89,-99.99,,,-99.99,,2013-04-02 18:53:00,
2013-04-02 13:02:00,41.0,37.0,-100.00,NE,36,9.0,14.0,86,-99.99,,,-99.99,,2013-04-02 19:02:00,
2013-04-02 13:12:00,41.0,37.0,-100.00,NE,51,12.0,17.0,86,-99.99,,,-99.99,,2013-04-02 19:12:00,
2013-04-02 13:22:00,42.0,37.0,-100.00,ENE,64,12.0,17.0,84,-99.99,,,-99.99,,2013-04-02 19:22:00,
2013-04-02 13:32:00,42.0,37.0,-100.00,NE,52,10.0,16.0,82,-99.99,,,-99.99,,2013-04-02 19:32:00,
2013-04-02 13:43:00,42.0,38.0,-100.00,ENE,61,9.0,13.0,84,-99.99,,,-99.99,,2013-04-02 19:43:00,
2013-04-02 13:52:00,43.0,38.0,-100.00,NE,39,10.0,16.0,81,-99.99,,,-99.99,,2013-04-02 19:52:00,
2013-04-02 14:02:00,44.0,38.0,-100.00,ENE,70,13.0,18.0,79,-99.99,,,-99.99,,2013-04-02 20:02:00,
2013-04-02 14:12:00,45.0,38.0,-100.00,ENE,66,14.0,20.0,76,-99.99,,,-99.99,,2013-04-02 20:12:00,
2013-04-02 14:21:00,45.0,36.0,-100.00,NE,56,15.0,21.0,69,-99.99,,,-99.99,,2013-04-02 20:21:00,
2013-04-02 14:32:00,45.0,36.0,-100.00,ENE,58,13.0,23.0,69,-99.99,,,-99.99,,2013-04-02 20:32:00,
2013-04-02 14:43:00,46.0,37.0,-100.00,ENE,76,13.0,16.0,69,-99.99,,,-99.99,,2013-04-02 20:43:00,
2013-04-02 14:52:00,47.0,34.0,-100.00,NE,53,16.0,24.0,61,-99.99,,,-99.99,,2013-04-02 20:52:00,
2013-04-02 15:02:00,47.0,35.0,-100.00,ENE,64,15.0,18.0,63,-99.99,,,-99.99,,2013-04-02 21:02:00,
2013-04-02 15:12:00,47.0,34.0,-100.00,NE,53,13.0,22.0,61,-99.99,,,-99.99,,2013-04-02 21:12:00,
2013-04-02 15:22:00,47.0,34.0,-100.00,NE,49,18.0,25.0,61,-99.99,,,-99.99,,2013-04-02 21:22:00,
2013-04-02 15:32:00,47.0,34.0,-100.00,NE,49,18.0,25.0,61,-99.99,,,-99.99,,2013-04-02 21:32:00,
2013-04-02 15:42:00,47.0,34.0,-100.00,NE,49,18.0,25.0,61,-99.99,,,-99.99,,2013-04-02 21:42:00,
2013-04-02 15:54:00,48.0,33.0,-100.00,NE,45,13.0,22.0,55,-99.99,,,-99.99,,2013-04-02 21:54:00,
2013-04-02 16:03:00,48.0,32.0,-100.00,NE,51,15.0,18.0,54,-99.99,,,-99.99,,2013-04-02 22:03:00,
2013-04-02 16:13:00,48.0,29.0,-100.00,NNE,26,16.0,23.0,48,-99.99,,,-99.99,,2013-04-02 22:13:00,
2013-04-02 16:23:00,49.0,31.0,-100.00,NE,55,14.0,20.0,50,-99.99,,,-99.99,,2013-04-02 22:23:00,
2013-04-02 16:32:00,48.0,31.0,-100.00,NE,40,16.0,20.0,51,-99.99,,,-99.99,,2013-04-02 22:32:00,
2013-04-02 16:43:00,48.0,30.0,-100.00,NNE,24,12.0,15.0,49,-99.99,,,-99.99,,2013-04-02 22:43:00,
2013-04-02 17:02:00,48.0,30.0,-100.00,NNE,23,14.0,18.0,49,-99.99,,,-99.99,,2013-04-02 23:02:00,
2013-04-02 17:12:00,50.0,32.0,-100.00,ENE,74,10.0,19.0,50,-99.99,,,-99.99,,2013-04-02 23:12:00,
2013-04-02 17:22:00,50.0,34.0,-100.00,East,85,13.0,18.0,52,-99.99,,,-99.99,,2013-04-02 23:22:00,
2013-04-02 17:33:00,50.0,34.0,-100.00,East,85,13.0,18.0,52,-99.99,,,-99.99,,2013-04-02 23:33:00,
2013-04-02 17:42:00,50.0,32.0,-100.00,ENE,65,19.0,23.0,49,-99.99,,,-99.99,,2013-04-02 23:42:00,
2013-04-02 17:52:00,50.0,32.0,-100.00,East,81,10.0,14.0,49,-99.99,,,-99.99,,2013-04-02 23:52:00,
2013-04-02 18:02:00,50.0,30.0,-100.00,NE,41,10.0,16.0,44,-99.99,,,-99.99,,2013-04-03 00:02:00,
2013-04-02 18:12:00,50.0,28.0,-100.00,NE,49,14.0,20.0,41,-99.99,,,-99.99,,2013-04-03 00:12:00,
2013-04-02 18:23:00,50.0,30.0,-100.00,ENE,59,12.0,18.0,47,-99.99,,,-99.99,,2013-04-03 00:23:00,
2013-04-02 18:32:00,50.0,28.0,-100.00,NNE,33,11.0,14.0,41,-99.99,,,-99.99,,2013-04-03 00:32:00,
2013-04-02 18:44:00,50.0,29.0,-100.00,NE,40,9.0,14.0,45,-99.99,,,-99.99,,2013-04-03 00:44:00,
2013-04-02 18:53:00,49.0,29.0,-100.00,NNE,33,11.0,16.0,45,-99.99,,,-99.99,,2013-04-03 00:53:00,
2013-04-02 19:02:00,49.0,29.0,-100.00,NNE,33,11.0,16.0,45,-99.99,,,-99.99,,2013-04-03 01:02:00,
2013-04-02 19:12:00,49.0,28.0,-100.00,NNE,33,9.0,16.0,43,-99.99,,,-99.99,,2013-04-03 01:12:00,
2013-04-02 19:21:00,49.0,29.0,-100.00,NE,50,7.0,9.0,46,-99.99,,,-99.99,,2013-04-03 01:21:00,
2013-04-02 19:33:00,48.0,30.0,-100.00,NE,42,8.0,12.0,49,-99.99,,,-99.99,,2013-04-03 01:33:00,
2013-04-02 19:42:00,48.0,30.0,-100.00,NE,35,5.0,7.0,49,-99.99,,,-99.99,,2013-04-03 01:42:00,
2013-04-02 19:52:00,48.0,31.0,-100.00,NNE,22,1.0,7.0,50,-99.99,,,-99.99,,2013-04-03 01:52:00,
2013-04-02 20:03:00,48.0,31.0,-100.00,NNE,22,1.0,7.0,50,-99.99,,,-99.99,,2013-04-03 02:03:00,
2013-04-02 20:12:00,47.0,30.0,-100.00,NNW,339,2.0,3.0,51,-99.99,,,-99.99,,2013-04-03 02:12:00,
2013-04-02 20:21:00,46.0,30.0,-100.00,NNE,14,3.0,4.0,54,-99.99,,,-99.99,,2013-04-03 02:21:00,
2013-04-02 20:33:00,46.0,31.0,-100.00,North,354,4.0,5.0,55,-99.99,,,-99.99,,2013-04-03 02:33:00,
2013-04-02 20:42:00,44.0,31.0,-100.00,North,0,4.0,6.0,59,-99.99,,,-99.99,,2013-04-03 02:42:00,
2013-04-02 20:52:00,44.0,31.0,-100.00,North,0,4.0,6.0,59,-99.99,,,-99.99,,2013-04-03 02:52:00,
2013-04-02 21:03:00,45.0,31.0,-100.00,NNW,331,5.0,11.0,58,-99.99,,,-99.99,,2013-04-03 03:03:00,
2013-04-02 21:13:00,44.0,31.0,-100.00,NNW,346,5.0,7.0,59,-99.99,,,-99.99,,2013-04-03 03:13:00,
2013-04-02 21:22:00,44.0,31.0,-100.00,NNW,346,5.0,7.0,59,-99.99,,,-99.99,,2013-04-03 03:22:00,
2013-04-02 21:43:00,44.0,31.0,-100.00,NNW,348,6.0,7.0,60,-99.99,,,-99.99,,2013-04-03 03:43:00,
2013-04-02 21:53:00,44.0,31.0,-100.00,NNW,338,5.0,6.0,61,-99.99,,,-99.99,,2013-04-03 03:53:00,
2013-04-02 22:03:00,44.0,31.0,-100.00,NNW,339,6.0,8.0,61,-99.99,,,-99.99,,2013-04-03 04:03:00,
2013-04-02 22:12:00,44.0,31.0,-100.00,North,350,6.0,11.0,58,-99.99,,,-99.99,,2013-04-03 04:12:00,
2013-04-02 22:23:00,44.0,31.0,-100.00,North,354,7.0,9.0,60,-99.99,,,-99.99,,2013-04-03 04:23:00,
2013-04-02 22:32:00,43.0,30.0,-100.00,NNW,335,5.0,8.0,59,-99.99,,,-99.99,,2013-04-03 04:32:00,
2013-04-02 22:42:00,43.0,30.0,-100.00,NNW,335,5.0,8.0,59,-99.99,,,-99.99,,2013-04-03 04:42:00,
2013-04-02 22:53:00,43.0,30.0,-100.00,WSW,251,3.0,5.0,59,-99.99,,,-99.99,,2013-04-03 04:53:00,
2013-04-02 23:02:00,40.0,30.0,-100.00,NW,311,3.0,4.0,64,-99.99,,,-99.99,,2013-04-03 05:02:00,
2013-04-02 23:12:00,42.0,29.0,-100.00,West,273,3.0,5.0,61,-99.99,,,-99.99,,2013-04-03 05:12:00,
2013-04-02 23:22:00,42.0,29.0,-100.00,West,273,3.0,5.0,61,-99.99,,,-99.99,,2013-04-03 05:22:00,
2013-04-02 23:32:00,42.0,29.0,-100.00,West,278,5.0,6.0,60,-99.99,,,-99.99,,2013-04-03 05:32:00,
2013-04-02 23:42:00,42.0,30.0,-100.00,West,281,7.0,8.0,61,-99.99,,,-99.99,,2013-04-03 05:42:00,
2013-04-02 23:52:00,42.0,30.0,-100.00,West,281,7.0,8.0,61,-99.99,,,-99.99,,2013-04-03 05:52:00,